Weather in Arpora

India     15°34′03″N   73°46′17″E
temp.,
°C
wind,
m/s
gust,
m/s
humid.,
%
clouds,
%
prec.,
mm/h
press.,
hPa
HPBL,
m
23 april, fri
fri2323:30+28nw3472100 0.0 1011590
02:30+28w1170100 0.0 1010679
05:30+27wnw1171100 0.0 1010674
08:30+29n116659 0.0 1012596
11:30+29wsw4365100 0.0 1012672
14:30+29w656748 0.0 1008512
17:30+29nw78685 0.0 1008816
20:30+29nw57696 0.0 1010678
24 april, sat
sat2423:30+28nw34700 0.0 1011654
02:30+28nnw3468100 0.0 1009589
05:30+26nne2373100 0.0 1010263
08:30+28n23686 0.0 1011352
11:30+28w6668100 0.0 1011563
14:30+30wnw886213 0.0 1008562
17:30+29nw89630 0.0 1007847
20:30+29nw68684 0.0 1009710
25 april, sun
sun2523:30+28nnw34700 0.0 1011663
02:30+27nne22715 0.0 1008300
05:30+26ene327842 0.0 1010169
08:30+27e22716 0.0 1011291
11:30+28wnw66745 0.0 1011520
14:30+30wnw88671 0.0 1007611
17:30+29nw776921 0.0 1007810
20:30+29nw677299 0.0 1009835
26 april, mon
mon2623:30+28nw34763 0.0 1010653
02:30+27n238014 0.0 1008464
05:30+26ene21855 0.0 1008174
08:30+28ene227937 0.0 1011359
11:30+29w55766 0.0 1009556
14:30+30w76724 0.0 1006601
17:30+29wnw667213 0.0 1006837
20:30+29nnw34765 0.0 1009510
27 april, tue
tue2723:30+28nnw34766 0.0 1009406
02:30+28nnw467781 0.0 1007584
05:30+27ene328321 0.0 1008190
08:30+28nnw227498 0.0 1011285
11:30+30wnw437114 0.0 1010387
14:30+30wsw436463 0.0 1006386
17:30+30w77731 0.0 1006539
20:30+29wnw45770 0.0 1009538